Location: Unspecified
(0.0000°N, 0.0000°E)
Time: 14:33:27
(UTC+00:00)

deb Delta 126 - Pass Details

Date: 15 February 2026
Orbit: 1502 x 2092 km, 101.9° (Epoch: 4 March)

Event Time Altitude Azimuth Distance (km) Brightness Sun altitude
Rises 05:21:00 0° 341° (NNW) 4,685 ? -13.0°
Reaches altitude 10° 05:25:02 10° 323° (NW) 3,764 ? -12.0°
Maximum altitude 05:30:18 17° 286° (WNW) 3,306 ? -10.7°
Drops below altitude 10° 05:35:52 10° 248° (WSW) 3,993 ? -9.3°
Sets 05:40:26 0° 230° (SW) 5,096 ? -8.2°
